TimeMST,TemperatureF,Dew PointF,Humidity,Sea Level PressureIn,VisibilityMPH,Wind Direction,Wind SpeedMPH,Gust SpeedMPH,PrecipitationIn,Events,Conditions,WindDirDegrees,DateUTC
12:00 AM,48.2,46.4,93,30.09,0.8,North,5.8,-,0.00,Rain,Light Rain,10,2013-01-26 07:00:00
12:04 AM,48.2,46.4,93,30.09,1.0,North,4.6,-,0.01,Rain,Light Rain,10,2013-01-26 07:04:00
12:19 AM,48.2,46.4,93,30.10,2.0,NW,4.6,-,0.04,Rain,Rain,320,2013-01-26 07:19:00
12:53 AM,48.0,46.9,96,29.98,2.5,Calm,Calm,-,0.15,Rain,Rain,0,2013-01-26 07:53:00
12:59 AM,48.2,46.4,93,30.09,3.0,Calm,Calm,-,0.02,Rain,Rain,0,2013-01-26 07:59:00
1:11 AM,46.4,46.4,100,30.08,2.5,Calm,Calm,-,0.05,Rain,Rain,0,2013-01-26 08:11:00
1:15 AM,46.4,46.4,100,30.08,3.0,Calm,Calm,-,0.06,Rain,Rain,0,2013-01-26 08:15:00
1:34 AM,46.4,46.4,100,30.06,1.8,NE,3.5,-,0.08,Rain,Light Rain,40,2013-01-26 08:34:00
1:45 AM,46.4,46.4,100,30.05,0.5,Calm,Calm,-,0.08,Fog-Rain,Light Rain,0,2013-01-26 08:45:00
1:53 AM,46.9,46.9,100,29.91,0.8,Calm,Calm,-,0.09,Rain,Light Rain,0,2013-01-26 08:53:00
2:00 AM,46.4,46.4,100,30.05,0.8,Calm,Calm,-,0.01,Rain,Light Rain,0,2013-01-26 09:00:00
2:08 AM,46.4,46.4,100,30.05,1.2,Calm,Calm,-,0.03,Rain,Rain,0,2013-01-26 09:08:00
2:15 AM,46.4,46.4,100,30.04,2.5,Calm,Calm,-,0.03,Rain,Light Rain,0,2013-01-26 09:15:00
2:37 AM,46.4,46.4,100,30.03,3.0,Calm,Calm,-,0.06,Rain,Light Rain,0,2013-01-26 09:37:00
2:53 AM,46.9,46.9,100,29.87,3.0,Calm,Calm,-,0.07,Rain,Light Rain,0,2013-01-26 09:53:00
3:19 AM,48.2,46.4,93,30.00,6.0,SE,4.6,-,0.01,Rain,Light Rain,140,2013-01-26 10:19:00
3:36 AM,48.2,46.4,93,30.00,4.0,SE,10.4,-,0.01,Rain,Light Rain,140,2013-01-26 10:36:00
3:45 AM,48.2,46.4,93,29.99,2.0,SE,6.9,-,0.04,Rain,Rain,140,2013-01-26 10:45:00
3:53 AM,48.0,46.9,96,29.86,2.5,SE,6.9,-,0.04,Rain,Light Rain,130,2013-01-26 10:53:00
4:00 AM,48.2,46.4,93,29.99,2.5,SE,5.8,-,0.01,Rain,Light Rain,130,2013-01-26 11:00:00
4:10 AM,48.2,46.4,93,29.98,5.0,ESE,5.8,-,0.01,Rain,Light Rain,120,2013-01-26 11:10:00
4:18 AM,48.2,46.4,93,29.98,6.0,SE,5.8,-,0.01,Rain,Light Rain,130,2013-01-26 11:18:00
4:39 AM,48.2,46.4,93,29.98,3.0,SSE,4.6,-,0.06,Rain,Rain,160,2013-01-26 11:39:00
4:53 AM,48.0,46.9,96,29.85,5.0,Calm,Calm,-,0.07,Rain,Light Rain,0,2013-01-26 11:53:00
5:19 AM,48.2,46.4,93,29.96,3.0,Calm,Calm,-,0.03,Rain,Rain,0,2013-01-26 12:19:00
5:46 AM,48.2,46.4,93,29.95,3.0,Calm,Calm,-,0.06,Rain,Rain,0,2013-01-26 12:46:00
5:53 AM,48.0,46.9,96,29.83,3.0,Calm,Calm,-,0.07,Rain,Light Rain,0,2013-01-26 12:53:00
6:10 AM,46.4,46.4,100,29.94,3.0,Calm,Calm,-,0.01,Rain,Light Rain,0,2013-01-26 13:10:00
6:53 AM,46.9,46.0,97,29.82,4.0,West,3.5,-,0.02,Rain,Light Rain,270,2013-01-26 13:53:00
7:53 AM,46.9,46.0,97,29.84,4.0,Calm,Calm,-,0.16,Rain,Light Rain,0,2013-01-26 14:53:00
8:23 AM,46.4,46.4,100,29.95,5.0,Calm,Calm,-,0.04,Rain,Light Rain,0,2013-01-26 15:23:00
8:53 AM,48.0,46.9,96,29.83,4.0,SSE,4.6,-,0.06,Rain,Light Rain,160,2013-01-26 15:53:00
9:53 AM,48.9,46.9,93,29.83,3.0,SSE,9.2,-,0.09,Rain,Rain,150,2013-01-26 16:53:00
10:53 AM,48.9,46.9,93,29.83,3.0,Calm,Calm,-,0.09,Rain,Rain,0,2013-01-26 17:53:00
11:53 AM,48.9,46.0,90,29.82,5.0,South,8.1,-,0.05,Rain,Light Rain,190,2013-01-26 18:53:00
12:53 PM,48.9,46.0,90,29.78,6.0,South,9.2,20.7,0.04,Rain,Light Rain,180,2013-01-26 19:53:00
1:40 PM,48.2,44.6,87,29.90,10.0,South,9.2,-,0.00,,Overcast,180,2013-01-26 20:40:00
1:53 PM,48.0,45.0,89,29.79,5.0,SSW,6.9,-,0.00,,Overcast,200,2013-01-26 20:53:00
2:53 PM,48.0,45.0,89,29.79,8.0,South,3.5,-,0.00,,Overcast,170,2013-01-26 21:53:00
3:53 PM,48.0,44.1,86,29.80,10.0,SSW,8.1,-,0.01,,Overcast,200,2013-01-26 22:53:00
4:53 PM,48.0,43.0,83,29.81,10.0,South,10.4,-,N/A,,Overcast,190,2013-01-26 23:53:00
5:53 PM,46.9,43.0,86,29.82,7.0,SSW,11.5,-,0.00,Rain,Light Rain,200,2013-01-27 00:53:00
6:42 PM,46.4,44.6,93,29.95,3.0,SW,4.6,-,0.02,Rain,Light Rain,230,2013-01-27 01:42:00
6:53 PM,46.0,44.1,93,29.85,5.0,SSW,3.5,-,0.03,Rain,Light Rain,200,2013-01-27 01:53:00
7:53 PM,46.0,43.0,89,29.86,10.0,SSW,5.8,-,0.00,,Overcast,200,2013-01-27 02:53:00
8:53 PM,45.0,43.0,93,29.87,10.0,SSE,4.6,-,0.01,,Overcast,160,2013-01-27 03:53:00
9:53 PM,46.0,43.0,89,29.88,7.0,Calm,Calm,-,0.00,Rain,Light Rain,0,2013-01-27 04:53:00
10:53 PM,46.0,43.0,89,29.88,10.0,Calm,Calm,-,0.00,,Overcast,0,2013-01-27 05:53:00
11:53 PM,45.0,43.0,93,29.89,7.0,Variable,4.6,-,N/A,,Overcast,0,2013-01-27 06:53:00